星链-11654 (STARLINK-11654)

导读

STARLINK-11654是由美国于2025年3月15日发射的Starlink星座卫星,属于SpaceX公司星链计划的组网卫星,主要服务于全球卫星互联网接入服务,为偏远地区、海上、航空等场景提供高速低延迟的网络连接,进一步扩充了星链星座的部署规模,强化了星座覆盖能力与服务稳定性。

Basic Information
目录编号:
63265
目录名称:
STARLINK-11654
国际标识:
2025-053A
轨道中心:
EARTH
卫星名称:
星链-11654
卫星全名:
星链-11654 (STARLINK-11654)
卫星状态:
在轨 (已飞行539 天)
发射日期:
2025-03-15 UTC
国别 :
美国 (US)
星等 :
--
Orbit Information
数据来源 国际轨道数据
星历时间: 2026-09-05T08:26:04+0800
12小时前
查看轨道信息
半长轴: 6734.075km
偏心率: 0.0001535
轨道倾角: 43.000°
近地点辐角 309.761°
升交点赤经 111.257°
平近点角 50.312°
近地点: 354.904km
远地点: 356.972km
周期: 91.659分钟
每日圈数: 15.710351
Detailed Information
固有亮度:
5
最大亮度:
2.5
卫星平台:
Starlink V1.0
覆盖范围:
全球
运营商:
太空探索技术公司
运营商所在国:
美国
制造商(研发单位):
太空探索技术公司
制造商所在国:
美国
使用方式:
暂无
Satellite Introduction
Starlink 计划是 SpaceX 推出的全球卫星互联网项目,通过发射低轨道卫星,为全球尤其是偏远地区提供高速、低延迟的互联网服务。自 2019 年起,Starlink 已部署数千颗卫星,旨在缩小全球数字鸿沟,推动互联网普及。该项目还为军事、航空等行业提供通信支持,带来广泛经济效益。
2D Orbit Map
3D Orbit Map
Orbit Altitude Analysis Chart
Orbit Inclination Analysis Chart
Orbit Comprehensive Analysis Chart
View Comprehensive Chart
Conjunction Data List
Event ID Objects TCA Miss Dist (km) Collision Risk Probability Collision Risk Index (CRI) Action
CDM_260906-103706-326506-768721
LEOPARD (67687)
2026-09-06T
10:37:18+0000
2.548 km
极远距离
1.396704E-6 低风险 0.38
CDM_260901-004604-493006-326522
2026-09-01T
00:46:49+0000
2.976 km
极远距离
9.496225E-7 极低风险 0.35